Temp
74 77 76 74 74 73 71 72 75 76 76 77 77 77 77 78 76 76 75 76 76 77
74 74 74 74 75 75 73 72 74 76 77 77 77 76 76 75 75 76 76 76 76 76
75 75 75 75 74 73 72 72 70 71 74 77 76 76 75 74 75 74 74 75 75 75
76 75 75 75 74 74 73 70 70 68 70 72 75 76 74 74 75 74 73 73 74 74
76 76 76 75 74 74 71 69 70 69 68 69 69 70 71 71 72 71 71 71 70 69
76 76 74 74 74 74 71 69 69 71 68 67 66 67 67 65 65 65 67 68 67 66
76 76 75 73 72 70 69 68 69 70 70 69 70 69 66 67 65 63 63 63 63 63
76 75 73 71 68 71 70 68 69 70 71 71 68 67 67 68 65 62 60 59 61 61
75 73 72 68 69 70 69 68 69 68 69 67 64 58 61 67 66 65 65 62 60 58
75 71 68 67 68 67 67 66 66 66 67 65 65 57 58 62 66 65 64 64 65 66
75 69 66 65 65 65 67 64 63 64 65 64 60 54 55 60 67 65 65 65 66 65
73 66 64 63 63 66 66 64 60 61 62 62 60 53 54 63 66 64 64 65 65 66
67 65 63 62 63 62 65 61 61 58 58 56 60 51 52 62 68 63 64 62 61 54
65 64 63 63 61 60 61 61 58 57 56 55 56 54 50 53 66 65 65 63 61 59
MSLP
1015.69 1015.64 1015.62 1015.54 1015.28 1014.99 1014.91 1014.51 1014.02 1013.69 1013.63 1013.50 1013.56 1013.81 1013.99 1014.26 1014.55 1014.76 1015.02 1015.17 1015.39 1015.62
1015.86 1015.83 1015.82 1015.72 1015.46 1015.07 1015.03 1014.70 1014.18 1013.75 1013.55 1013.47 1013.60 1013.77 1013.93 1014.10 1014.30 1014.55 1014.74 1014.79 1015.12 1015.32
1015.78 1015.79 1015.94 1015.95 1015.58 1015.34 1015.24 1014.96 1014.54 1014.09 1013.78 1013.56 1013.51 1013.62 1013.82 1014.05 1014.18 1014.42 1014.64 1014.75 1014.96 1015.25
1015.67 1015.96 1016.10 1015.95 1015.75 1015.49 1015.36 1015.28 1014.78 1014.40 1014.18 1013.96 1013.78 1013.80 1013.97 1014.11 1014.18 1014.34 1014.54 1014.85 1014.93 1015.09
1015.64 1015.91 1016.11 1016.11 1015.96 1015.75 1015.67 1015.60 1015.19 1014.86 1014.69 1014.56 1014.46 1014.47 1014.51 1014.53 1014.66 1014.72 1014.85 1014.96 1015.19 1015.55
1015.56 1015.79 1016.04 1016.22 1016.21 1016.12 1016.06 1015.88 1015.69 1015.39 1015.32 1015.34 1015.29 1015.19 1015.29 1015.33 1015.46 1015.51 1015.49 1015.67 1015.91 1016.18
1015.58 1015.96 1016.18 1016.34 1016.45 1016.50 1016.57 1016.37 1016.25 1016.14 1015.95 1015.96 1015.91 1015.92 1015.98 1016.05 1016.20 1016.27 1016.29 1016.36 1016.44 1016.62
1015.52 1016.13 1016.43 1016.60 1016.74 1016.69 1016.76 1016.80 1016.88 1016.77 1016.62 1016.57 1016.63 1016.74 1016.73 1016.79 1016.92 1017.06 1017.21 1017.28 1017.38 1017.50
1015.29 1016.09 1016.44 1016.94 1016.91 1016.94 1016.93 1017.02 1017.22 1017.30 1017.26 1017.40 1017.66 1017.60 1017.42 1017.46 1017.63 1017.71 1017.80 1018.05 1018.32 1018.50
1015.27 1016.01 1016.61 1017.10 1017.39 1017.45 1017.45 1017.29 1017.52 1017.92 1018.04 1018.25 1018.54 1018.60 1018.42 1018.29 1018.35 1018.37 1018.42 1018.57 1018.62 1018.72
1015.30 1016.17 1016.90 1017.48 1017.69 1017.75 1017.95 1017.98 1018.07 1018.51 1018.80 1019.00 1019.46 1019.39 1019.17 1019.11 1019.07 1019.11 1019.15 1019.19 1019.34 1019.49
1015.34 1016.25 1016.96 1017.63 1018.15 1018.08 1018.24 1018.48 1018.83 1019.30 1019.59 1019.68 1019.99 1020.02 1019.73 1019.42 1019.53 1019.69 1019.77 1019.96 1020.15 1020.25
1015.65 1016.49 1017.24 1017.85 1018.33 1018.69 1018.63 1019.11 1019.30 1019.84 1020.25 1020.56 1020.56 1020.67 1020.45 1019.99 1019.86 1020.00 1020.35 1020.76 1021.15 1021.44
1015.97 1016.57 1017.12 1017.73 1018.49 1018.87 1018.96 1019.32 1019.56 1020.09 1020.70 1021.03 1021.17 1021.25 1021.09 1020.89 1020.54 1020.52 1020.41 1020.85 1021.61 1022.21
Wind_Speed
5 3 3 5 5 5 5 6 6 4 4 4 5 6 6 6 6 7 7 10 8 5
3 5 5 6 5 5 7 6 6 4 3 4 5 5 6 6 7 6 7 8 7 7
4 4 4 5 6 7 6 7 7 6 4 1 4 5 6 5 4 5 4 4 6 7
4 4 4 4 6 7 7 7 8 8 6 3 3 1 2 3 4 4 4 4 6 7
3 1 3 5 6 7 8 7 8 9 8 8 7 7 4 3 3 2 1 1 2 3
3 1 3 4 5 7 8 8 9 9 10 9 8 8 8 7 7 7 6 5 6 6
4 1 2 4 6 7 7 9 10 10 10 10 9 9 7 9 9 9 9 8 8 8
5 3 4 5 6 7 8 8 8 9 10 11 10 7 9 10 10 9 10 10 9 9
6 6 5 5 6 7 8 9 8 9 9 10 7 10 11 9 9 9 10 10 9 7
7 8 7 6 5 6 6 8 9 8 9 9 9 12 12 10 9 9 9 9 9 10
9 9 8 7 6 7 6 7 7 7 8 9 8 10 11 10 10 10 11 11 11 10
9 10 9 8 6 6 7 7 7 7 8 8 7 8 6 8 9 10 11 11 10 10
8 9 10 9 7 5 7 8 8 9 8 7 8 7 6 5 7 10 9 10 11 15
7 10 11 10 7 7 8 9 9 10 8 8 6 6 7 6 7 7 8 8 7 7
Wind_Direction
50 27 5 358 348 354 335 322 314 313 256 231 229 225 215 222 222 216 214 218 215 228
69 28 6 359 357 6 346 340 340 338 293 214 206 219 213 219 218 227 223 221 219 230
84 39 3 349 11 19 3 358 15 19 345 284 226 207 204 216 210 204 220 230 222 229
78 22 357 9 25 22 21 13 28 33 22 8 316 291 179 217 200 211 216 219 229 227
112 27 12 27 37 35 37 34 38 47 47 45 48 37 36 43 33 3 336 243 200 158
155 133 66 51 54 47 50 48 49 56 55 57 54 62 63 64 59 54 56 70 75 57
183 185 91 89 74 64 54 56 54 56 63 57 56 66 65 70 71 66 61 60 62 62
162 188 142 106 90 87 79 70 59 64 63 63 59 49 64 73 75 73 66 56 57 63
152 172 158 133 119 104 97 87 76 70 68 65 57 51 61 80 79 77 79 78 76 70
169 174 158 150 133 109 102 98 88 75 74 66 63 52 63 72 83 80 78 79 79 78
183 171 149 154 149 133 127 98 89 81 76 75 62 55 68 72 81 77 74 74 76 74
188 166 159 153 157 133 127 110 93 85 89 96 88 57 54 98 98 90 79 73 65 77
162 164 156 146 150 136 114 107 104 90 82 71 87 55 43 93 112 105 94 77 70 54
149 159 150 143 139 137 124 124 118 107 90 73 60 59 56 42 114 118 112 99 88 69